Date String (YYYY-MM-DD hh:mm:ss) UTC,Instrument flags,Ambient pressure (hPa),Sample flow (lpm),Bypass flow (lpm),Sample temperature (°C),Ambient temperature (°C),ASC tube jacket temperature (°C),LED temperature (°C),Box temperature (°C),Sample RH (%),Span deviation,Mass concentration (μg/m³),Mass concentration (μg/m³),Mass concentration (μg/m³)
DateTimeUTC,F1_M11,P_M11,Q1_M11,Q2_M11,T1_M11,T2_M11,T3_M11,T4_M11,T5_M11,U1_M11,ZSPAN_M11,X0_M11,X2_M11,X1_M11
2022-05-31 15:00:00,,0826.0,4.99,0.00,25.1,24.2,00.0,34.0,27.1,20.2,0000.0,0005.89,0001.59,0001.12
2022-05-31 15:01:00,,0826.0,5.01,0.00,25.1,24.2,00.0,34.0,27.1,19.8,0000.0,0004.63,0001.58,0001.11
2022-05-31 15:02:00,,0825.9,4.99,0.00,25.1,24.2,00.0,34.0,27.1,19.5,0000.0,0005.24,0001.60,0001.12
2022-05-31 15:03:00,,0826.0,5.00,0.00,25.1,24.2,00.0,34.0,27.1,19.6,0000.0,0005.16,0001.60,0001.12
2022-05-31 15:04:00,,0826.0,5.01,0.00,25.1,24.2,00.0,34.0,27.1,19.7,0000.0,0005.11,0001.61,0001.12
2022-05-31 15:05:00,,0825.9,4.99,0.00,25.1,24.2,00.0,34.0,27.1,19.1,0000.0,0004.72,0001.63,0001.13
2022-05-31 15:06:00,,0826.0,5.00,0.00,25.1,24.2,00.0,34.0,27.1,19.3,0000.0,0004.24,0001.65,0001.14
2022-05-31 15:07:00,,0826.0,5.00,0.00,25.1,24.2,00.0,34.0,27.1,19.2,0000.0,0003.86,0001.63,0001.13
2022-05-31 15:08:00,,0826.0,5.00,0.00,25.1,24.2,00.0,34.0,27.1,19.1,0000.0,0003.84,0001.63,0001.12
2022-05-31 15:09:00,,0826.0,5.01,0.00,25.1,24.2,00.0,34.0,27.1,19.3,0000.0,0003.79,0001.62,0001.12
2022-05-31 15:10:00,,0826.0,5.01,0.00,25.1,24.2,00.0,34.0,27.1,19.8,0000.0,0003.84,0001.65,0001.12
2022-05-31 15:11:00,,0826.0,4.99,0.00,25.1,24.2,00.0,34.0,27.1,19.8,0000.0,0003.84,0001.66,0001.11
2022-05-31 15:12:00,,0825.9,5.01,0.00,25.1,24.2,00.0,34.0,27.1,19.5,0000.0,0003.93,0001.71,0001.11
2022-05-31 15:13:00,,0825.9,5.00,0.00,25.1,24.2,00.0,34.1,27.1,19.6,0000.0,0004.41,0001.69,0001.09
2022-05-31 15:14:00,,0825.8,5.00,0.00,25.1,24.2,00.0,34.1,27.1,19.8,0000.0,0004.48,0001.65,0001.08
2022-05-31 15:15:00,,0825.9,5.01,0.00,25.1,24.2,00.0,34.0,27.1,20.3,0000.0,0004.48,0001.61,0001.07
2022-05-31 15:16:00,,0825.9,5.01,0.00,25.1,24.2,00.0,34.0,27.1,20.0,0000.0,0004.43,0001.58,0001.06
2022-05-31 15:17:00,,0825.9,4.99,0.00,25.1,24.2,00.0,34.0,27.1,19.7,0000.0,0004.79,0001.57,0001.05
2022-05-31 15:18:00,,0825.9,5.00,0.00,25.1,24.2,00.0,34.0,27.1,19.8,0000.0,0005.10,0001.55,0001.04
2022-05-31 15:19:00,,0825.9,5.00,0.00,25.1,24.2,00.0,34.0,27.1,20.1,0000.0,0005.01,0001.51,0001.02
2022-05-31 15:20:00,,0825.9,5.00,0.00,25.1,24.2,00.0,34.0,27.1,20.2,0000.0,0005.02,0001.52,0001.02
2022-05-31 15:21:00,,0825.9,5.00,0.00,25.1,24.2,00.0,34.0,27.1,20.6,0000.0,0004.91,0001.46,0001.01
2022-05-31 15:22:00,,0825.9,5.00,0.00,25.1,24.2,00.0,34.0,27.1,20.8,0000.0,0004.81,0001.42,0001.00
2022-05-31 15:23:00,,0825.9,4.99,0.00,25.1,24.2,00.0,34.1,27.1,20.3,0000.0,0004.82,0001.40,0001.01
2022-05-31 15:24:00,,0825.9,5.01,0.00,25.1,24.2,00.0,34.1,27.0,20.2,0000.0,0004.34,0001.46,0001.04
2022-05-31 15:25:00,,0825.9,5.00,0.00,25.1,24.2,00.0,34.1,27.1,19.8,0000.0,0004.71,0001.52,0001.05
2022-05-31 15:26:00,,0825.8,5.00,0.00,25.1,24.2,00.0,34.0,27.1,20.0,0000.0,0004.88,0001.61,0001.07
2022-05-31 15:27:00,,0825.9,5.00,0.00,25.1,24.2,00.0,34.1,27.1,20.6,0000.0,0004.90,0001.63,0001.08
2022-05-31 15:28:00,,0825.8,5.01,0.00,25.1,24.2,00.0,34.1,27.1,21.0,0000.0,0004.54,0001.62,0001.08
2022-05-31 15:29:00,,0825.9,4.99,0.00,25.1,24.2,00.0,34.1,27.1,19.8,0000.0,0005.15,0001.66,0001.09
2022-05-31 15:30:00,,0825.9,5.01,0.00,25.1,24.2,00.0,34.1,27.1,19.9,0000.0,0005.36,0001.69,0001.11
2022-05-31 15:31:00,,0825.9,4.99,0.00,25.1,24.2,00.0,34.1,27.1,20.3,0000.0,0005.48,0001.70,0001.12
2022-05-31 15:32:00,,0826.0,4.99,0.00,25.1,24.2,00.0,34.1,27.1,20.5,0000.0,0005.64,0001.74,0001.14
2022-05-31 15:33:00,,0826.0,5.00,0.00,25.2,24.2,00.0,34.1,27.1,20.1,0000.0,0005.71,0001.77,0001.15
2022-05-31 15:34:00,,0826.0,5.01,0.00,25.2,24.2,00.0,34.1,27.1,20.3,0000.0,0005.74,0001.78,0001.17
2022-05-31 15:35:00,,0826.0,5.00,0.00,25.2,24.2,00.0,34.1,27.1,20.2,0000.0,0005.38,0001.77,0001.20
2022-05-31 15:36:00,,0826.0,5.00,0.00,25.2,24.3,00.0,34.1,27.1,19.9,0000.0,0004.33,0001.78,0001.24
2022-05-31 15:37:00,,0826.0,5.00,0.00,25.2,24.3,00.0,34.1,27.2,20.6,0000.0,0005.88,0001.79,0001.26
2022-05-31 15:38:00,,0826.0,5.00,0.00,25.2,24.3,00.0,34.1,27.2,20.0,0000.0,0005.91,0001.82,0001.29
2022-05-31 15:39:00,,0826.0,4.99,0.00,25.2,24.3,00.0,34.1,27.2,19.8,0000.0,0006.04,0001.89,0001.33
2022-05-31 15:40:00,,0826.1,5.01,0.00,25.2,24.3,00.0,34.1,27.2,19.8,0000.0,0005.94,0001.95,0001.37
2022-05-31 15:41:00,,0826.1,5.00,0.00,25.3,24.4,00.0,34.1,27.2,20.3,0000.0,0006.43,0001.96,0001.40
2022-05-31 15:42:00,,0826.0,5.00,0.00,25.3,24.4,00.0,34.1,27.3,19.7,0000.0,0006.70,0001.99,0001.43
2022-05-31 15:43:00,,0826.0,4.99,0.00,25.3,24.4,00.0,34.1,27.3,19.9,0000.0,0006.58,0001.99,0001.45
2022-05-31 15:44:00,,0826.0,5.01,0.00,25.3,24.4,00.0,34.1,27.3,20.0,0000.0,0006.54,0001.99,0001.47
2022-05-31 15:45:00,,0826.0,4.99,0.00,25.3,24.4,00.0,34.1,27.3,19.7,0000.0,0006.51,0002.00,0001.49
2022-05-31 15:46:00,,0826.0,5.01,0.00,25.3,24.5,00.0,34.2,27.3,19.4,0000.0,0006.42,0002.01,0001.52
2022-05-31 15:47:00,,0826.0,5.00,0.00,25.3,24.5,00.0,34.2,27.3,19.6,0000.0,0006.52,0002.06,0001.53
2022-05-31 15:48:00,,0826.0,4.99,0.00,25.3,24.5,00.0,34.2,27.3,20.0,0000.0,0005.21,0002.06,0001.55
2022-05-31 15:49:00,,0826.0,5.01,0.00,25.4,24.5,00.0,34.2,27.4,19.5,0000.0,0004.99,0002.09,0001.58
2022-05-31 15:50:00,,0826.1,5.00,0.00,25.4,24.5,00.0,34.2,27.4,20.4,0000.0,0005.11,0002.09,0001.60
2022-05-31 15:51:00,,0826.1,5.01,0.00,25.4,24.5,00.0,34.2,27.4,20.0,0000.0,0004.73,0002.05,0001.59
2022-05-31 15:52:00,,0826.1,4.99,0.00,25.4,24.5,00.0,34.2,27.4,20.4,0000.0,0003.77,0002.04,0001.58
2022-05-31 15:53:00,,0826.1,5.00,0.00,25.4,24.6,00.0,34.2,27.4,20.0,0000.0,0003.58,0002.03,0001.59
2022-05-31 15:54:00,,0826.2,5.01,0.00,25.4,24.6,00.0,34.3,27.4,19.7,0000.0,0004.31,0002.10,0001.62
2022-05-31 15:55:00,,0826.2,4.99,0.00,25.4,24.6,00.0,34.3,27.4,20.0,0000.0,0004.57,0002.22,0001.64
2022-05-31 15:56:00,,0826.1,5.01,0.00,25.4,24.6,00.0,34.3,27.4,20.2,0000.0,0004.58,0002.23,0001.65
2022-05-31 15:57:00,,0826.1,5.01,0.00,25.4,24.6,00.0,34.3,27.4,19.7,0000.0,0004.55,0002.23,0001.66
2022-05-31 15:58:00,,0826.1,4.99,0.00,25.4,24.6,00.0,34.3,27.4,19.9,0000.0,0005.12,0002.23,0001.68
2022-05-31 15:59:00,,0826.1,5.00,0.00,25.5,24.6,00.0,34.3,27.4,19.9,0000.0,0006.10,0002.23,0001.70
